Flag Weather past 2 weeks in Boston, Massachusetts, U.S.A.

Now
35 °F

Mostly cloudy.


Feels Like: 29 °F
Forecast: 32 / 37 °F
Wind: 8 mph from North

Location: Logan International Airport

Current Time: Nov 27, 2014 at 6:26:08 PM

Latest Report: Nov 27, 2014 at 5:54 PM


Visibility: 10 mi

Pressure: 29.98 "Hg

Humidity: 75%

Dew point: 28 °F

Location of BostonLocation

Historic Weather in Boston — Graph

°F

Boston temperature yesterday

Maximum temperature yesterday: 50 °F (at 12:54 AM)
Minimum temperature yesterday: 33 °F (at 9:54 PM)
Average temperature yesterday: 40 °F

Past Weeks' High & Low Weather Summary

 TemperatureHumidityPressure
High65 °F (Nov 24, 1:54 PM)100% (Nov 17, 6:54 AM)30.43 "Hg (Nov 17, 6:54 AM)
Low24 °F (Nov 19, 2:54 AM)23% (Nov 22, 1:54 PM)29.43 "Hg (Nov 17, 10:54 PM)
Average41 °F60%30.00 "Hg
* Reported Nov 12 4:54 PM — Nov 27 4:54 PM, Boston, Weather by CustomWeather, © 2014

Note: Actual official high and low records may vary slightly from our data, if they occured in-between our weather recording intervals... More about our weather records

Advertising

Boston weather history for previous 24 hours

 ConditionsComfort  
Time TempWeatherWind HumidityBarometerVisibility
4:54 PM
Nov 27
36 °FMostly cloudy.8 mph75%29.98 "Hg10 mi
3:54 PM37 °FMostly cloudy.8 mph76%29.97 "Hg10 mi
2:54 PM37 °FMostly cloudy.8 mph73%29.96 "Hg10 mi
2:02 PM37 °FMore clouds than sun.8 mph75%29.95 "Hg10 mi
12:54 PM38 °FOvercast.7 mph73%29.94 "Hg10 mi
11:54 AM38 °FMostly cloudy.8 mph70%29.94 "Hg10 mi
10:54 AM36 °FMostly cloudy.8 mph75%29.96 "Hg10 mi
9:54 AM36 °FMostly cloudy.8 mph79%29.96 "Hg10 mi
8:54 AM35 °FPartly sunny.9 mph82%29.92 "Hg10 mi
7:54 AM34 °FBroken clouds.13 mph85%29.88 "Hg10 mi
6:54 AM35 °FPartly sunny.10 mph85%29.84 "Hg10 mi
5:54 AM34 °FPassing clouds.12 mph88%29.83 "Hg10 mi
4:54 AM35 °FMostly cloudy.10 mph88%29.80 "Hg10 mi
3:54 AM34 °FLight rain. Mostly cloudy.13 mph92%29.77 "Hg7 mi
2:54 AM33 °FLight snow. Fog.18 mph92%29.74 "Hg2 mi
1:54 AM33 °FLight snow. Fog.16 mph92%29.72 "Hg2 mi
12:54 AM33 °FLight snow. Fog.16 mph92%29.70 "Hg2 mi
11:54 PM
Nov 26
34 °FLight rain. Fog.15 mph88%29.68 "Hg2 mi
10:54 PM33 °FLight snow. Fog.21 mph92%29.69 "Hg2 mi
9:54 PM33 °FLight rain. Fog.20 mph96%29.70 "Hg2 mi
8:54 PM38 °FLight rain. Fog.23 mph93%29.71 "Hg3 mi
7:54 PM39 °FLight rain. Fog.23 mph93%29.76 "Hg5 mi
6:54 PM37 °FRain. Fog.21 mph93%29.80 "Hg4 mi
Weather by CustomWeather, © 2014

See weather overviewHow to use our weather pages